#timestamp,LO_Frequency,Hit,StdDev 
1505145615.4,286046998.0,N,0.9
1505145635.2,286046997.9,N,0.8
1505145655.1,286046995.1,Y,0.0
1505145656.0,286046995.1,P,1.3
1505145675.8,286046996.5,N,1.1
1505145695.6,286046996.7,P,1.0
1505145715.5,286046997.8,N,1.0
1505145735.3,286046995.0,Y,0.0
1505145755.2,286046998.5,P,0.9
1505145775.0,286046998.1,N,0.7
1505145775.9,286046998.1,N,0.7
1505145795.7,286047000.4,N,1.2
1505145815.6,286047001.0,N,1.4
1505145835.4,286046998.6,N,1.3
1505145855.3,286047001.1,N,1.5
1505145875.1,286046998.4,N,1.4
1505145895.9,286046999.0,N,1.3
1505145915.7,286046999.1,N,1.3
1505145935.5,286046999.4,N,1.2
1505145955.4,286046998.6,N,1.2
1505145975.2,286046999.6,N,1.1
1505145995.1,286046996.5,Y,0.0
1505145996.0,286046996.5,P,1.3
1505146015.8,286046996.5,N,1.2
1505146035.6,286046999.5,N,1.4
1505146055.5,286046996.9,N,1.3
1505146075.3,286046997.7,N,1.2
1505146095.2,286046997.8,N,1.1
1505146115.9,286046997.2,N,1.0
1505146135.7,286046997.7,N,1.0
1505146155.6,286046997.1,N,1.0
1505146175.4,286046997.3,N,0.9
1505146195.2,286046997.5,N,0.9
1505146215.1,286046997.7,N,0.8
1505146216.0,286046997.7,N,0.8
1505146235.8,286046997.5,Y,0.0
1505146255.7,286046999.1,P,0.8
1505146275.5,286046996.9,P,0.9
1505146295.4,286046996.7,P,0.9
1505146315.2,286046999.2,N,1.1
1505146335.0,286046996.6,Y,0.0
1505146335.9,286046996.6,P,0.6
1505146355.8,286046999.4,N,1.1
1505146375.6,286046999.3,N,1.1
1505146395.5,286046998.1,N,1.0
1505146415.3,286047000.9,N,1.4
1505146435.1,286046998.1,N,1.3
1505146455.9,286047001.0,N,1.4
1505146475.7,286047001.0,N,1.5
1505146495.6,286046999.3,N,1.4
1505146515.4,286046998.9,N,1.4
1505146535.2,286046998.3,N,1.3
1505146555.1,286046998.7,N,1.3
1505146556.0,286046998.7,N,1.2
1505146575.8,286046999.0,N,1.2
1505146595.7,286046996.5,N,1.3
1505146615.5,286046996.8,N,1.4
1505146635.3,286046996.7,N,1.4
1505146655.2,286046996.9,N,1.4
1505146675.0,286046999.1,N,1.4
1505146675.9,286046999.1,N,1.4
1505146695.8,286046997.1,N,1.4
1505146715.6,286046999.1,N,1.3
1505146735.4,286046996.6,N,1.4
1505146755.3,286046999.2,N,1.3
1505146775.1,286046999.2,N,1.3
1505146795.9,286046999.2,N,1.3
1505146815.7,286046999.1,N,1.3
1505146835.5,286046997.8,N,1.3
1505146855.4,286046997.3,N,1.3
1505146875.2,286046998.0,N,1.3
1505146895.1,286046997.1,N,1.2
1505146896.0,286046997.1,N,1.3
1505146915.8,286046997.3,N,1.3
1505146935.7,286046997.6,N,1.3
1505146955.5,286046997.6,N,1.2
1505146975.3,286046997.8,N,1.2
1505146995.2,286046997.7,N,1.1
1505147015.0,286046997.3,N,0.9
1505147015.9,286046997.3,N,0.9
1505147035.8,286046997.8,N,0.9
1505147055.6,286046997.5,N,0.9
1505147075.4,286046999.6,N,0.9
1505147095.3,286046997.2,Y,0.0
1505147115.1,286046998.4,P,0.2
1505147135.9,286046998.7,P,0.3
1505147155.7,286046999.3,N,0.5
1505147175.5,286046999.6,N,0.6
1505147195.4,286046998.6,N,0.6
1505147215.2,286046999.4,N,0.6
1505147235.0,286046999.1,N,0.5
1505147236.0,286046999.1,N,0.5
1505147255.8,286046999.6,N,0.5
1505147275.6,286046999.2,N,0.5
1505147295.5,286046998.2,Y,0.0
1505147315.3,286047000.4,P,0.7
1505147335.2,286047000.4,N,0.7
1505147355.9,286047002.8,P,1.4
1505147375.7,286047000.3,N,1.2
1505147395.6,286047001.1,N,1.1
1505147415.4,286047001.1,N,1.1
1505147435.3,286047000.3,N,1.0
1505147455.1,286046998.7,N,1.1
1505147456.0,286046998.7,N,1.2
1505147475.8,286046998.3,N,1.3
1505147495.7,286046999.0,N,1.3
1505147515.5,286046999.0,N,1.2
1505147535.4,286047000.8,N,1.2
1505147555.2,286047000.0,N,1.2
1505147575.0,286046998.1,N,1.2
1505147575.9,286046998.1,N,1.3
1505147595.8,286047001.1,N,1.3
1505147615.6,286046999.1,N,1.2
1505147635.5,286047001.2,N,1.2
1505147655.3,286046999.2,N,1.2
1505147675.1,286046998.9,N,1.2
1505147695.9,286046998.1,N,1.2
1505147715.7,286047000.6,N,1.2
1505147735.5,286047000.5,N,1.2
1505147755.4,286047000.7,N,1.2
1505147775.2,286046998.2,N,1.2
1505147795.1,286047000.7,N,1.2
1505147796.0,286047000.7,N,1.2
1505147815.8,286046998.1,N,1.2
1505147835.7,286046998.1,N,1.2
1505147855.5,286046999.9,N,1.2
1505147875.3,286042545.3,Y,0.0
1505147895.2,286046999.8,P,0.0
1505147915.0,286047000.2,P,0.2
1505147915.9,286047000.2,N,0.2
1505147935.8,286046999.7,N,0.2
1505147955.6,286047002.4,Y,0.0
1505147975.4,286047002.6,P,1.3
1505147995.3,286047001.8,N,1.1
1505148015.1,286047002.0,N,1.0
1505148035.9,286047002.0,N,0.9
1505148055.7,286047002.0,N,0.8
1505148075.5,286047001.3,N,0.8
1505148095.4,286047002.0,N,0.7
1505148115.2,286047001.8,N,0.7
1505148135.1,286047001.4,N,0.7
1505148136.0,286042956.5,Y,0.0
1505148155.8,286046999.8,P,0.9
1505148175.6,286047002.7,N,1.2
1505148195.5,286046999.8,N,1.2
1505148215.3,286047000.0,N,1.2
1505148235.2,286047002.8,N,1.3
1505148255.9,286047000.4,N,1.2
1505148275.7,286046999.8,N,1.2
1505148295.6,286047001.5,N,1.2
1505148315.4,286047001.9,N,1.2
1505148335.3,286047001.5,N,1.1
1505148355.1,286047004.1,Y,0.0
1505148375.8,286047002.4,P,0.7
1505148395.7,286047002.0,N,0.6
1505148415.5,286047001.6,N,0.5
1505148435.4,286047004.2,Y,0.0
1505148455.2,286047002.3,P,0.3
1505148475.0,286047002.2,P,0.2
1505148475.9,286047002.2,P,0.2
1505148495.8,286047002.8,Y,0.0
1505148515.6,286047001.2,P,0.5
1505148535.5,286046998.7,N,1.4
1505148555.3,286046998.3,N,1.6
1505148575.1,286046998.8,N,1.5
1505148595.9,286046998.9,N,1.4
1505148615.7,286046999.2,N,1.3
1505148635.6,286046999.4,N,1.3
1505148655.4,286046998.4,N,1.2
1505148675.2,286046999.3,N,1.2
1505148695.1,286046999.0,N,1.1
1505148696.0,286046999.0,N,1.1
1505148715.8,286046998.7,N,1.1
1505148735.7,286046998.1,N,1.1
1505148755.5,286046998.5,N,1.0
1505148775.3,286046998.9,N,1.0
1505148795.2,286046999.3,N,1.0
1505148815.0,286046998.9,N,1.0
1505148815.9,286046998.9,N,0.9
1505148835.8,286047001.2,N,1.0
1505148855.6,286047000.6,N,1.0
1505148875.4,286047000.3,N,1.0
1505148895.3,286046999.9,N,1.0
1505148915.1,286047000.1,N,1.0
1505148935.9,286047002.4,N,1.1
1505148955.7,286047002.8,N,1.3
1505148975.5,286047002.2,N,1.4
1505148995.4,286047002.3,N,1.4
1505149015.2,286047001.8,N,1.4
1505149035.1,286047002.0,N,1.5
1505149036.0,286047002.0,N,1.5
1505149055.8,286043085.0,Y,0.0
1505149075.6,286047001.5,P,0.8
1505149095.5,286047001.6,N,0.7
1505149115.3,286047001.9,N,0.7
1505149135.2,286047001.9,N,0.7
1505149155.9,286047002.2,Y,0.0
1505149175.7,286047000.4,P,0.5
1505149195.6,286047000.8,N,0.4
